2020-068U

Last updated on Thu Oct 29 2020 00:02:02 GMT+0000 (Coordinated Universal Time)

1 46504U 20068U 20302.39514133 -.00000054 00000-0 45638-6 0 9993 2 46504 97.6642 235.5389 0012431 147.5029 212.6960 15.01838966 4400
UTC large
Height (km)
Speed (km/s)
/
Latitude / Longitude
Inclination (degrees)
Orbital Period (minutes)
Azimuth
Elevation
Range (km)
Doppler Factor

Next 0 passes for location: London (51.5072 / 0.1276)

Sorry there are no passes over London.